Regional Weather Roundup
Issued by NWS

Home | Current Version | Previous Version | Graphics & Text | Print | Product List | Glossary Off
Versions: 1 2 3 4 5 6 7 8 9 10 11 12 13 14 15 16 17 18 19 20 21 22 23 24 25 26 27 28 29 30 31 32 33 34 35 36 37 38 39 40 41 42 43 44 45 46 47 48 49 50

000
ASUS43 KMKX 270100
RWRWI

WISCONSIN REGIONAL WEATHER ROUNDUP
NATIONAL WEATHER SERVICE MILWAUKEE/SULLIVAN WI
800 PM CDT SUN APR 26 2015

NOTE: "FAIR" INDICATES FEW OR NO CLOUDS BELOW 12,000 FEET WITH NO
SIGNIFICANT WEATHER AND/OR OBSTRUCTIONS TO VISIBILITY.

WIZ001-002-006>008-014>016-023>028-270200-
NORTHWEST WISCONSIN

CITY           SKY/WX    TMP DP  RH WIND       PRES   REMARKS
SUPERIOR ARPT  CLEAR     40  30  69 NE5       30.16S
ASHLAND        CLEAR     40  32  73 N5        30.16F
HAYWARD        CLEAR     50  22  33 NE6       30.13S
SIREN          CLEAR     57  20  24 NE9       30.12R
CUMBERLAND     CLEAR     52  21  30 NE12      30.11R
RICE LAKE      CLEAR     54  22  28 N13G22    30.12R
CHETEK         CLEAR     55  24  30 N9G16     30.10R
LADYSMITH      CLEAR     51  26  37 N15       30.12S
EAU CLAIRE     NOT AVBL
MENOMONIE      CLEAR     60  17  18 N13       30.07S
NEW RICHMOND   CLEAR     58  19  22 N9        30.09S
OSCEOLA        CLEAR     58  24  27 NE10      30.12R
$$

WIZ003>005-009-010-017-018-270200-
NORTH CENTRAL WISCONSIN

CITY           SKY/WX    TMP DP  RH WIND       PRES   REMARKS
MANITOWISH WTR CLEAR     46  25  43 N8        30.12R
ARBOR VITAE    CLEAR     49  29  46 N7G16     30.11R
WOODRUFF       CLEAR     49  29  46 N7G16     30.11R
RHINELANDER    CLEAR     49  27  42 N5        30.09R
EAGLE RIVER    CLEAR     47  28  46 N10       30.10R
LAND O LAKES   CLEAR     46  30  52 N8        30.11S
PHILLIPS       CLEAR     48  27  43 N15       30.10R
TOMAHAWK       CLEAR     50  23  34 N6        30.09R
MEDFORD        CLEAR     51  27  38 N9G17     30.07R
MERRILL        CLEAR     53  25  33 NE12G18   30.06R
$$

WIZ029-030-035-036-043>047-270200-
CENTRAL WISCONSIN

CITY           SKY/WX    TMP DP  RH WIND       PRES   REMARKS
WAUSAU         CLEAR     55  24  30 N12       30.04R
MOSINEE        NOT AVBL
MARSHFIELD     CLEAR     56  24  29 N12       30.04R
STEVENS POINT  CLEAR     55  23  28 N5        30.03R
WAUPACA        CLEAR     58  24  27 E8        30.02R
WAUTOMA        NOT AVBL
WISC RAPIDS    CLEAR     57  19  22 N8        30.03R
CAMP DOUGLAS   NOT AVBL
$$

WIZ011>013-019>022-031-037>040-048>050-270200-
NORTHEAST WISCONSIN

CITY           SKY/WX    TMP DP  RH WIND       PRES   REMARKS
ANTIGO         CLEAR     51  31  47 N14       30.05R
SHAWANO        CLEAR     52  31  44 SE7       30.04R
OCONTO         CLEAR     46  34  63 E6        30.05R
STURGEON BAY   PTCLDY    46  28  49 NE16      30.08R
GREEN BAY      CLEAR     50  33  52 NE14      30.05R
MANITOWOC      NOT AVBL
APPLETON       CLEAR     54  27  35 E10       30.03R
CLINTONVILLE   CLEAR     52  27  37 E8        30.03R
OSHKOSH        CLEAR     50  32  50 E9        30.03R
$$

WIZ032>034-041-042-053>061-270200-
SOUTHWEST WISCONSIN

CITY           SKY/WX    TMP DP  RH WIND       PRES   REMARKS
LA CROSSE      CLEAR     58  26  29 N8        30.04R
SPARTA         CLEAR     58  21  23 N7        30.04S
VIROQUA        CLEAR     55  26  32 NE8       30.04R
BOSCOBEL       CLEAR     58  24  27 N3        30.03R
PRAIRIE DU CHI CLEAR     59  23  25 NW7       30.03R
PLATTEVILLE    CLEAR     53  31  41 N6        30.02S
$$

WIZ056-057-062-063-064-067-068-270200-
SOUTH CENTRAL WISCONSIN

CITY           SKY/WX    TMP DP  RH WIND       PRES   REMARKS
REEDSBURG      CLEAR     57  25  29 N6        30.02R
BARABOO/DELLS  CLEAR     57  20  24 NW7       30.01R
LONE ROCK      NOT AVBL
MINERAL POINT  CLEAR     55  23  28 N5        30.02R
MADISON        CLEAR     54  25  32 CALM      30.00S
MIDDLETON      CLEAR     56  30  36 N5        30.01S
WATERTOWN      CLEAR     51  31  46 SE5       30.00S
MONROE         CLEAR     52  28  40 N6        30.00S
JANESVILLE     CLEAR     52  25  35 NE6       30.01R
$$

WIZ051-052-058>065-066-070>072-270200-
SOUTHEAST WISCONSIN

CITY           SKY/WX    TMP DP  RH WIND       PRES   REMARKS
MILWAUKEE      PTCLDY    43  26  51 N9        30.04R
WAUKESHA       CLEAR     45  23  42 E13       30.04R
MILWAUKEE/TIMM CLEAR     45  23  42 NE7       30.04R
RACINE         CLEAR     42  27  55 N10       30.04R
BURLINGTON     CLEAR     46  24  42 E6        30.02R
KENOSHA        CLEAR     45  24  43 NE9       30.02R
FOND DU LAC    CLEAR     49  26  41 E10       30.03R
SHEBOYGAN      CLEAR     41  29  62 NE8       30.05R
WEST BEND      CLEAR     45  25  45 NE9       30.04R
JUNEAU         CLEAR     54  27  36 NE6       30.01S
$$

LSZ147-162-270200-
LAKE SUPERIOR

STATION/POSITION TIME  TEMP    WIND        PRES    WAVE
                       AIR SEA DIR/SP/G            HT/PER
                 (UTC) (F)     (DEG/KT/KT) (MB)    (FT/S)
W MID LAKE BUOY  2350   36 35  300/  4/  6 1023.1S   1
DEVILS ISLAND    0000   37      30/  3/  3 1022.4F
PORT WING        0040   38      30/  6/  8 1021.3S
SAXON HARBOR     0000   43        CALM     1021.3F
$$

LMZ867-665-643>646-270200-
LAKE MICHIGAN

STATION/POSITION TIME  TEMP    WIND        PRES    WAVE
                       AIR SEA DIR/SP/G            HT/PER
                 (UTC) (F)     (DEG/KT/KT) (MB)    (FT/S)
CHAMBERS ISLAND  0000   42      20/ 13/ 16 1017.9R
NORTHPORT PIER   0000   43      10/ 13/ 14 1017.9S
KEWAUNEE LAKESHO 0000   43      40/  9/ 12 1016.6R
SHEBOYGAN LAKESH 0000   43      10/  8/  9 1017.9R
PORT WASHINGTON  0000   46      40/ 11/ 14 1017.6
MILWAUKEE LAKESH 0000   45      20/ 10/ 13   N/A
KENOSHA   LAKESH 0000   45      20/ 13/ 14 1016.3F
$$

TC  - TEMPERATURE IN CELSIUS
VSB - VISIBILITY IN STATUTE MILES
WCI - WIND CHILL INDEX
HX  - HEAT INDEX



USA.gov is the U.S. government's official web portal to all federal, state and local government web resources and services.